Weather History for KGON - September, 2012

Change the Weather History Date:

Tuesday, September 25, 2012

  Actual Average Record
Temperature  
Mean Temperature 56 °F -  
Max Temperature 71 °F 68 °F 82 °F (2010)
Min Temperature 42 °F 49 °F 34 °F (1963)
Degree Days  
Heating Degree Days 8    
Growing Degree Days 6 (Base 50)    
Moisture  
Dew Point 49 °F    
Average Humidity 68    
Maximum Humidity 93    
Minimum Humidity 47    
Precipitation  
Precipitation 0.02 in - - ()
Sea Level Pressure  
Sea Level Pressure 30.16 in    
Wind  
Wind Speed 9 mph (SW)    
Max Wind Speed 22 mph    
Max Gust Speed 29 mph    
Visibility 10 miles    
Events      
Averages and records for this station are not official NWS values.
T = Trace of Precipitation, MM = Missing Value Source: NWS Daily Summary

Daily Weather History Graph

Daily Weather History Graph

Search for Another Location

Airport or City:

Trip Planner

Search our weather history database for the weather conditions in past years. The results will help you decide how hot, cold, wet, or windy it might be!

Date:

Astronomy

Sep. 25, 2012 Rise Set
Actual Time 6:39 AM EDT 6:39 PM EDT
Civil Twilight 6:11 AM EDT 7:06 PM EDT
Nautical Twilight 5:39 AM EDT 7:39 PM EDT
Astronomical Twilight 5:06 AM EDT 8:11 PM EDT
Moon 4:04 PM EDT (9/25) 1:54 AM EDT (9/25)
Length of Visible Light 12h 55m
Length of Day
12h 00m
Waxing Gibbous, 80% of the Moon is Illuminated
Sep 25
Waxing Gibbous
Sep 29
Full
Oct 8
Last Quarter
Oct 15
New
Oct 21
First Quarter

Hourly Weather History & Observations

Time (EDT) Temp. Windchill Dew Point Humidity Pressure Visibility Wind Dir Wind Speed Gust Speed Precip Events Conditions
12:56 AM 45.0 °F - 43.0 °F 93% 30.14 in 10.0 mi Calm Calm - N/A   Partly Cloudy
1:56 AM 45.0 °F 43.5 °F 42.1 °F 90% 30.15 in 10.0 mi North 3.5 mph - N/A   Clear
2:56 AM 44.1 °F 42.5 °F 41.0 °F 89% 30.14 in 10.0 mi North 3.5 mph - N/A   Clear
3:56 AM 45.0 °F 42.6 °F 43.0 °F 93% 30.15 in 10.0 mi NE 4.6 mph - N/A   Clear
4:56 AM 43.0 °F - 41.0 °F 93% 30.16 in 10.0 mi Calm Calm - N/A   Clear
5:56 AM 42.1 °F 40.2 °F 39.9 °F 92% 30.17 in 10.0 mi North 3.5 mph - N/A   Clear
6:56 AM 42.1 °F 40.2 °F 39.9 °F 92% 30.18 in 7.0 mi North 3.5 mph - N/A   Clear
7:56 AM 50.0 °F - 46.0 °F 86% 30.19 in 10.0 mi Calm Calm - N/A   Clear
8:56 AM 63.0 °F - 48.0 °F 58% 30.19 in 10.0 mi SW 16.1 mph - N/A   Clear
9:56 AM 66.0 °F - 48.0 °F 52% 30.20 in 10.0 mi SW 11.5 mph - N/A   Clear
10:56 AM 69.1 °F - 48.0 °F 47% 30.19 in 10.0 mi SW 15.0 mph 23.0 mph N/A   Clear
11:56 AM 70.0 °F - 50.0 °F 49% 30.17 in 10.0 mi SW 16.1 mph - N/A   Scattered Clouds
12:56 PM 71.1 °F - 53.1 °F 53% 30.16 in 10.0 mi SSW 18.4 mph 24.2 mph N/A   Scattered Clouds
1:56 PM 71.1 °F - 52.0 °F 51% 30.16 in 10.0 mi SSW 21.9 mph 26.5 mph N/A   Clear
2:56 PM 69.8 °F - 51.8 °F 53% 30.15 in 10.0 mi SW 18.4 mph 26.5 mph N/A   Partly Cloudy
3:56 PM 70.0 °F - 51.1 °F 51% 30.16 in 10.0 mi SW 18.4 mph 27.6 mph N/A   Scattered Clouds
4:56 PM 69.1 °F - 53.1 °F 57% 30.15 in 10.0 mi SSW 21.9 mph 28.8 mph N/A   Partly Cloudy
5:56 PM 66.9 °F - 50.0 °F 54% 30.15 in 10.0 mi SSW 17.3 mph 25.3 mph N/A   Clear
6:56 PM 66.0 °F - 50.0 °F 56% 30.15 in 10.0 mi SSW 19.6 mph 24.2 mph N/A   Clear
7:56 PM 66.2 °F - 53.6 °F 64% 30.16 in 10.0 mi SSW 16.1 mph - N/A   Clear
8:56 PM 66.0 °F - 54.0 °F 65% 30.16 in 10.0 mi SSW 18.4 mph - N/A   Clear
9:56 PM 66.0 °F - 55.0 °F 68% 30.16 in 10.0 mi SSW 16.1 mph - N/A   Clear
10:56 PM 66.2 °F - 55.4 °F 68% 30.16 in 10.0 mi SSW 17.3 mph 24.2 mph N/A   Clear
11:56 PM 66.0 °F - 55.9 °F 70% 30.15 in 10.0 mi SSW 16.1 mph - N/A   Clear